Regional Weather Roundup
Issued by NWS Little Rock, AR

Home | Current Version | Previous Version | Text Only | Print | Product List | Glossary Off
Versions: 1 2 3 4 5 6 7 8 9 10 11 12 13 14 15 16 17 18 19 20 21 22 23 24 25 26 27 28 29 30 31 32 33 34 35 36 37 38 39 40 41 42 43 44 45 46 47 48 49 50

000
ASUS44 KLZK 181205
RWRLZK

WEATHER ROUNDUP FOR ARKANSAS
NATIONAL WEATHER SERVICE LITTLE ROCK AR
600 AM CST THU DEC 18 2014

NOTE: "FAIR" INDICATES FEW OR NO CLOUDS BELOW 12,000 FEET WITH NO
SIGNIFICANT WEATHER AND/OR OBSTRUCTIONS TO VISIBILITY.

ARZ001-003-010-029-181300-
NORTHWEST ARKANSAS

CITY           SKY/WX    TMP DP  RH WIND       PRES   REMARKS
FAYETTEVILLE   CLOUDY    36  35  96 CALM      30.15R
6HR MIN TEMP:  36; 6HR MAX TEMP:  37; 6HR PCP: TRACE;

FORT SMITH     CLOUDY    37  35  92 E9        30.19R FOG
6HR MIN TEMP:  36; 6HR MAX TEMP:  37;

HARRISON       CLOUDY    33  33 100 SE7       30.16S FOG     WCI  27
6HR MIN TEMP:  32; 6HR MAX TEMP:  33; 6HR PCP: TRACE;

BENTONVILLE    CLOUDY    37  34  87 CALM      30.16R
6HR MIN TEMP:  36; 6HR MAX TEMP:  37;

ROGERS         MIX PCPN  36  35  96 CALM      30.16R FOG
6HR MIN TEMP:  36; 6HR MAX TEMP:  36; 6HR PCP: TRACE;

SILOAM SPGS    CLOUDY    36  30  80 CALM      30.17R
6HR MIN TEMP:  36; 6HR MAX TEMP:  37;

HIGHFILL       CLOUDY    36  36 100 CALM      30.15R FOG
6HR MIN TEMP:  36; 6HR MAX TEMP:  37;

$$

ARZ004-005-016-181300-
NORTH CENTRAL ARKANSAS

CITY           SKY/WX    TMP DP  RH WIND       PRES   REMARKS
BATESVILLE     CLOUDY    36  32  87 NE3       30.23R
6HR MIN TEMP:  36; 6HR MAX TEMP:  36;

FLIPPIN        CLOUDY    34  28  80 SE3       30.20S
6HR MIN TEMP:  34; 6HR MAX TEMP:  34; 6HR PCP:  0.02;

MTN HOME       CLOUDY    33  33 100 SE6       30.19S WCI  28
6HR MIN TEMP:  33; 6HR MAX TEMP:  33; 6HR PCP: TRACE;

$$

ARZ040-041-181300-
WEST CENTRAL ARKANSAS

CITY           SKY/WX    TMP DP  RH WIND       PRES   REMARKS
MENA           CLOUDY    37  37 100 E5        30.16R
MOUNT IDA      CLOUDY    38  36  92 CALM      30.15R FOG
6HR MIN TEMP:  37; 6HR MAX TEMP:  38; 6HR PCP:  0.04;

$$

ARZ009-017-025-026-028-181300-
NORTHEAST ARKANSAS

CITY           SKY/WX    TMP DP  RH WIND       PRES   REMARKS
CORNING        CLOUDY    36  36 100 NE5       30.25R FOG
JONESBORO      LGT RAIN  37  36  96 E6        30.24R
6HR MIN TEMP:  36; 6HR MAX TEMP:  37; 6HR PCP:  0.16;

NEWPORT        LGT RAIN  37  36  93 E6        30.25R FOG
6HR MIN TEMP:  36; 6HR MAX TEMP:  37; 6HR PCP:  0.13;

WALNUT RIDGE   CLOUDY    36  30  80 E6        30.24R
6HR MIN TEMP:  36; 6HR MAX TEMP:  36; 6HR PCP:  0.03;

BLYTHEVILLE    CLOUDY    37  35  92 E7        30.24S
6HR MIN TEMP:  37; 6HR MAX TEMP:  37; 6HR PCP:  0.15;

$$

ARZ022-023-033-042-044-181300-
CENTRAL ARKANSAS

CITY           SKY/WX    TMP DP  RH WIND       PRES   REMARKS
LITTLE ROCK    CLOUDY    38  34  85 E7        30.21S
6HR MIN TEMP:  37; 6HR MAX TEMP:  38; 6HR PCP:  0.10;

N LITTLE ROCK    N/A     36  36 100 E6        30.21S
6HR MIN TEMP:  35; 6HR MAX TEMP:  36;

JACKSONVILLE   CLOUDY    37  36  96 NE3       30.21R
6HR MIN TEMP:  36; 6HR MAX TEMP:  37; 6HR PCP:  0.10;

SEARCY         CLOUDY    37  35  92 NE7       30.24R
6HR MIN TEMP:  36; 6HR MAX TEMP:  37; 6HR PCP:  0.15;

HOT SPRINGS    CLOUDY    38  36  92 E6        30.19S
6HR MIN TEMP:  37; 6HR MAX TEMP:  38; 6HR PCP:  0.08;

RUSSELLVILLE   CLOUDY    36  34  92 E5        30.20S FOG
6HR MIN TEMP:  36; 6HR MAX TEMP:  37; 6HR PCP:  0.05;

CLINTON        CLOUDY    36  34  93 CALM      30.24R
$$

ARZ036-181300-
EAST ARKANSAS

CITY           SKY/WX    TMP DP  RH WIND       PRES   REMARKS
WEST MEMPHIS   CLOUDY    38  37  97 E3        30.22R
6HR MIN TEMP:  36; 6HR MAX TEMP:  38; 6HR PCP:  0.11;

$$

ARZ050-053-066-070-073-181300-
SOUTHWEST ARKANSAS

CITY           SKY/WX    TMP DP  RH WIND       PRES   REMARKS
ARKADELPHIA    PTSUNNY   38  38 100 NE5       30.20S
6HR MIN TEMP:  37; 6HR MAX TEMP:  39; 6HR PCP:  0.09;

CAMDEN         LGT RAIN  39  37  93 MISG      30.20S
TEXARKANA      CLOUDY    39  39 100 E6        30.16S
6HR MIN TEMP:  37; 6HR MAX TEMP:  39; 6HR PCP:  0.11;

EL DORADO      LGT RAIN  40  38  93 NE7       30.20R
6HR MIN TEMP:  39; 6HR MAX TEMP:  42;

DE QUEEN       CLOUDY    39  38  96 E6        30.16S FOG
6HR MIN TEMP:  38; 6HR MAX TEMP:  39; 6HR PCP:  0.01;

$$

ARZ056-057-069-181300-
SOUTHEAST ARKANSAS

CITY           SKY/WX    TMP DP  RH WIND       PRES   REMARKS
PINE BLUFF     CLOUDY    39  36  89 E7        30.21R
6HR MIN TEMP:  38; 6HR MAX TEMP:  40; 6HR PCP:  0.12;

STUTTGART      CLOUDY    37  36  93 E7        30.20S
6HR MIN TEMP:  37; 6HR MAX TEMP:  37; 6HR PCP:  0.17;

MONTICELLO     CLOUDY    41  38  89 NE5       30.22R
6HR MIN TEMP:  40; 6HR MAX TEMP:  42; 6HR PCP:  0.25;


$$




USA.gov is the U.S. government's official web portal to all federal, state and local government web resources and services.